Dalhart, TX

2:12 AM CDT on June 23, 2017 (GMT -0500)
Dalhart Municipal

Weather History for KDHT - October, 2013

Change the Weather History Date:

Tuesday, October 29, 2013

  Actual Average Record
Temperature  
Mean Temperature 58 °F 51 °F  
Max Temperature 77 °F 67 °F 91 °F (2016)
Min Temperature 38 °F 36 °F 17 °F (1993)
Degree Days  
Heating Degree Days 7 14  
Month to date heating degree days 269 268  
Since 1 July heating degree days 283 331  
Cooling Degree Days 0 0  
Month to date cooling degree days 13 8  
Year to date cooling degree days 1576 1136  
Growing Degree Days 6 (Base 50)    
Moisture  
Dew Point 34 °F    
Average Humidity 50    
Maximum Humidity 85    
Minimum Humidity 14    
Precipitation  
Precipitation 0.00 in 0.05 in 0.32 in (1974)
Month to date precipitation T 1.39  
Year to date precipitation 6.66 16.39  
Snow  
Snow 0.00 in 0.00 in 0.70 in (1993)
Month to date snowfall T 0.5  
Since 1 July snowfall T 0.5  
Since 1 September snowfall T 0.5  
Snow Depth 0.00 in    
Sea Level Pressure  
Sea Level Pressure 29.92 in    
Wind  
Wind Speed 10 mph (NW)    
Max Wind Speed 29 mph    
Max Gust Speed 37 mph    
Visibility 8 miles    
Events      
T = Trace of Precipitation, MM = Missing Value Source: NWS Daily Summary

Daily Weather History Graph

Daily Weather History Graph

Search for Another Location

Airport or City:

Trip Planner

Search our weather history database for the weather conditions in past years. The results will help you decide how hot, cold, wet, or windy it might be!

Date:

Astronomy

Oct. 29, 2013 Rise Set
Actual Time 8:10 AM CDT 6:57 PM CDT
Civil Twilight 7:43 AM CDT 7:23 PM CDT
Nautical Twilight 7:13 AM CDT 7:53 PM CDT
Astronomical Twilight 6:43 AM CDT 8:23 PM CDT
Moon 3:11 AM CDT (10/29) 4:03 PM CDT (10/29)
Length of Visible Light 11h 39m
Length of Day
10h 47m
Waning Crescent, 25% of the Moon is Illuminated
Oct 29
Waning Crescent
Nov 3
New
Nov 9
First Quarter
Nov 17
Full
Nov 25
Last Quarter

Hourly Weather History & Observations

Time (CDT) Temp. Windchill Dew Point Humidity Pressure Visibility Wind Dir Wind Speed Gust Speed Precip Events Conditions
12:53 AM 43.0 °F 37.2 °F 33.1 °F 68% 29.90 in 10.0 mi North 10.4 mph - N/A   Clear
1:53 AM 39.9 °F 33.9 °F 30.9 °F 70% 29.91 in 10.0 mi North 9.2 mph - N/A   Clear
2:53 AM 39.9 °F 34.5 °F 30.9 °F 70% 29.90 in 10.0 mi North 8.1 mph - N/A   Clear
3:53 AM 39.0 °F 33.4 °F 30.9 °F 73% 29.90 in 10.0 mi NNW 8.1 mph - N/A   Clear
4:53 AM 37.9 °F 32.1 °F 32.0 °F 79% 29.91 in 9.0 mi North 8.1 mph - N/A   Clear
5:18 AM 37.4 °F 32.1 °F 32.0 °F 81% 30.00 in 9.0 mi North 6.9 mph - N/A   Scattered Clouds
5:29 AM 37.4 °F 32.1 °F 32.0 °F 81% 30.00 in 9.0 mi North 6.9 mph - N/A   Mostly Cloudy
5:53 AM 39.0 °F 34.0 °F 33.1 °F 79% 29.90 in 8.0 mi NNE 6.9 mph - N/A   Overcast
6:29 AM 39.2 °F 33.6 °F 35.6 °F 87% 30.00 in 6.0 mi North 8.1 mph - N/A   Haze
6:53 AM 39.0 °F 35.7 °F 35.1 °F 86% 29.92 in 6.0 mi NE 4.6 mph - N/A   Partly Cloudy
7:53 AM 39.0 °F 36.8 °F 34.0 °F 82% 29.96 in 6.0 mi NNW 3.5 mph - N/A   Haze
8:03 AM 37.4 °F - 33.8 °F 87% 30.02 in 6.0 mi Calm Calm - N/A   Haze
8:51 AM 39.2 °F 37.0 °F 35.6 °F 87% 30.03 in 4.0 mi NNW 3.5 mph - N/A   Mostly Cloudy
8:53 AM 39.9 °F 37.8 °F 36.0 °F 86% 29.96 in 4.0 mi North 3.5 mph - N/A   Mostly Cloudy
9:53 AM 42.1 °F 40.2 °F 37.0 °F 82% 29.99 in 3.0 mi North 3.5 mph - N/A   Haze
10:28 AM 42.8 °F - 37.4 °F 81% 30.05 in 4.0 mi Calm Calm - N/A   Haze
10:53 AM 44.1 °F - 37.9 °F 79% 29.99 in 5.0 mi Calm Calm - N/A   Haze
11:53 AM 48.0 °F - 37.9 °F 68% 29.99 in 6.0 mi SSW 6.9 mph - N/A   Haze
12:53 PM 55.9 °F - 36.0 °F 47% 29.95 in 6.0 mi SSW 9.2 mph - N/A   Haze
1:53 PM 66.0 °F - 34.0 °F 30% 29.89 in 7.0 mi South 12.7 mph - N/A   Clear
2:53 PM 75.9 °F - 26.1 °F 16% 29.83 in 10.0 mi WSW 24.2 mph 32.2 mph N/A   Clear
3:53 PM 73.0 °F - 21.9 °F 15% 29.83 in 10.0 mi WSW 21.9 mph 31.1 mph N/A   Clear
4:53 PM 71.1 °F - 25.0 °F 18% 29.84 in 10.0 mi SW 16.1 mph - N/A   Clear
5:53 PM 69.1 °F - 28.0 °F 22% 29.84 in 10.0 mi SSW 9.2 mph - N/A   Clear
6:53 PM 64.0 °F - 28.9 °F 27% 29.87 in 10.0 mi South 8.1 mph - N/A   Clear
7:53 PM 59.0 °F - 28.9 °F 32% 29.88 in 10.0 mi SSE 5.8 mph - N/A   Clear
8:53 PM 57.0 °F - 30.9 °F 37% 29.88 in 10.0 mi South 5.8 mph - N/A   Clear
9:53 PM 61.0 °F - 37.0 °F 41% 29.85 in 10.0 mi SSE 15.0 mph - N/A   Clear
10:53 PM 60.1 °F - 46.9 °F 62% 29.85 in 10.0 mi South 10.4 mph - N/A   Clear
11:53 PM 62.1 °F - 48.9 °F 62% 29.84 in 10.0 mi South 15.0 mph - N/A   Clear